Regional Weather Roundup
Issued by NWS

Home | Current Version | Previous Version | Text Only | Print | Product List | Glossary On
Versions: 1 2 3 4 5 6 7 8 9 10 11 12 13 14 15 16 17 18 19 20 21 22 23 24 25 26 27 28 29 30 31 32 33 34 35 36 37 38 39 40 41 42 43 44 45 46 47 48 49 50
000
ASUS46 KPQR 251410
RWROR

OREGON REGIONAL WEATHER ROUNDUP
NATIONAL WEATHER SERVICE PORTLAND OR
700 AM PDT SAT MAR 25 2017

NOTE: "FAIR" INDICATES FEW OR NO CLOUDS BELOW 12,000 FEET WITH
NO SIGNIFICANT WEATHER AND/OR OBSTRUCTIONS TO VISIBILITY.

ORZ001>013-251500-
NORTHWEST OREGON


CITY           SKY/WX    TMP DP  RH WIND       PRES   REMARKS
ASTORIA        RAIN      43  41  93 NW7G18    30.11R FOG
NEWPORT        PTCLDY    41  37  87 SE3       30.16S
PORTLAND       PTCLDY    42  39  89 S6        30.14S
VANCOUVER WA   MOCLDY    44  43  96 SE3       30.14R
SCAPPOOSE      CLOUDY    36  36 100 CALM      30.13R FOG
HILLSBORO      MOCLDY    37  37 100 CALM      30.13R
AURORA         MOCLDY    44  41  89 CALM      30.15R
MCMINNVILLE    CLEAR     38  36  92 CALM      30.15R FOG
SALEM          CLOUDY    44  41  89 S7        30.14R
CORVALLIS      CLOUDY    45  41  87 CALM      30.15S
EUGENE         LGT RAIN  44  44 100 SW3       30.16S
$$

ORZ021-028-251500-
SOUTHWEST OREGON


CITY           SKY/WX    TMP DP  RH WIND       PRES   REMARKS
NORTH BEND     CLOUDY    45  45 100 S5        30.18S
BROOKINGS      CLOUDY    45  44  97 CALM      30.17F
ROSEBURG       CLOUDY    46  45  96 CALM      30.15S
SEXTON SUMMIT  SNOW      34  34 100 SW8       30.07S VSB 1/4 WCI  27
MEDFORD        MOCLDY    41  39  93 CALM      30.14S
$$

ORZ014>016-041-251500-
COLUMBIA GORGE


CITY           SKY/WX    TMP DP  RH WIND       PRES   REMARKS
TROUTDALE      MOCLDY    45  42  89 N3        30.14S
THE DALLES     CLOUDY    43  41  93 NW3       30.11S
$$

ORZ029>031-041-044-049-050-061>064-502-503-505>511-251500-
EASTERN OREGON


CITY           SKY/WX    TMP DP  RH WIND       PRES   REMARKS
REDMOND        CLOUDY    39  29  67 NW8       30.06R WCI  33
BEND           PTCLDY    36  30  80 SW6       30.06R WCI  31
PRINEVILLE     MOCLDY    36  30  80 W8        30.06R WCI  29
KLAMATH FALLS  PTCLDY    28  27  96 SE6       30.10S WCI  22
LAKEVIEW       MOCLDY    30  27  86 E5        30.10F WCI  25
HERMISTON      MOCLDY    41  38  89 NW5       30.09S
PENDLETON      LGT RAIN  40  38  93 SE7       30.07F
JOHN DAY       CLEAR     33  31  92 CALM      30.08S
MEACHAM        CLOUDY    33  29  85 CALM      30.05S
LA GRANDE      CLOUDY    34  30  86 SW3       30.07S
BAKER CITY     FOG       28  27  96 NE6       30.08S VSB<1/4 WCI  22
BURNS          CLEAR     27  26  96 E3        30.10S
ROME             N/A     31  27  85 CALM      30.08S
ONTARIO        FOG       34  34 100 CALM      30.12S VSB<1/4
$$



USA.gov is the U.S. government's official web portal to all federal, state and local government web resources and services.